Regional Weather Roundup
Issued by NWS

Home | Current Version | Previous Version | Graphics & Text | Print | Product List | Glossary On
Versions: 1 2 3 4 5 6 7 8 9 10 11 12 13 14 15 16 17 18 19 20 21 22 23 24 25 26 27 28 29 30 31 32 33 34 35 36 37 38 39 40 41 42 43 44 45 46 47 48 49 50
000
ASUS43 KIND 042159
RWRIN

WEATHER ROUNDUP FOR INDIANA
NATIONAL WEATHER SERVICE INDIANAPOLIS IN
600 PM EDT MON MAY 04 2015

NOTE: "FAIR" INDICATES FEW OR NO CLOUDS BELOW 12,000 FEET WITH NO
SIGNIFICANT WEATHER AND/OR OBSTRUCTIONS TO VISIBILITY.

* - STATION DOES NOT REPORT WEATHER SUCH AS PRECIPITATION OR FOG.

+ - STATION NOT QUALITY CONTROLLED BY THE NATIONAL WEATHER SERVICE.
    USE DATA WITH CAUTION...ESPECIALLY DEWPOINT AND RELATIVE
    HUMIDITY OBSERVATIONS.

INZ001>003-010>013-019-020-042300-
NORTHWEST INDIANA

CITY           SKY/WX    TMP DP  RH WIND       PRES   REMARKS
GARY /AIRPORT/ CLOUDY    64 N/A N/A E14       30.15S

$$

LMZ046-743>745-042300-
SOUTHERN LAKE MICHIGAN

STATION/POSITION TIME  TEMP    WIND        PRES    WAVE
                       AIR SEA DIR/SP/G            HT
                 (UTC) (F)     (DEG/KT/KT) (MB)    (FT)
BURNS HARBOR     2100   56      70/ 12/ 14 1021.0S
MICHIGAN CITY    2100   54      30/ 12/ 13   N/A
5NW MICH CITY    2100   52 50   80/  8/ 10   N/A     1

$$

INZ004-005-014>016-021>024-042300-
NORTH CENTRAL INDIANA

CITY           SKY/WX    TMP DP  RH WIND       PRES   REMARKS
GOSHEN         PTSUNNY   70  61  73 W12       30.14R
SOUTH BEND     PTSUNNY   72  57  59 NW8       30.14S
WARSAW +       CLOUDY    68  61  77 W6        30.14F

$$

INZ006>009-017-018-025>027-042300-
NORTHEAST INDIANA

CITY           SKY/WX    TMP DP  RH WIND       PRES   REMARKS
ANGOLA *+      MOSUNNY   73  59  60 W10       30.13S
FORT WAYNE     PTSUNNY   68  61  78 SW9       30.16S

$$

INZ028-029-035-036-043>045-051>053-042300-
WEST CENTRAL INDIANA

CITY           SKY/WX    TMP DP  RH WIND       PRES   REMARKS
CRAWFORDSVL +  PTSUNNY   74  53  48 SW13      30.12S
GREENCASTLE +  PTSUNNY   77  54  44 SW3       30.13F
LAFAYETTE      TSTM      65  64  97 SE3       30.13R FOG
TERRE HAUTE    PTSUNNY   80  59  48 SW9       30.11F

$$

INZ030>032-037>040-046>048-054>057-064-065-042300-
CENTRAL INDIANA

CITY           SKY/WX    TMP DP  RH WIND       PRES   REMARKS
COLUMBUS       SUNNY     75  55  50 CALM      30.15F
FRANKFORT +    TSTM      72  62  71 NW3       30.15F
GREENWOOD *+   PTSUNNY   77  57  50 S8        30.15F
INDIANAPOLIS   PTSUNNY   75  59  57 S12       30.12F
-EAGLE CREEK   PTSUNNY   75  59  57 SW9       30.13S
KOKOMO *+      CLOUDY    70  63  78 SW7       30.16R
MT COMFORT *+  PTSUNNY   75  48  38 SW7       30.15F
SHELBYVILLE    PTSUNNY   78  59  51 SW7       30.15F

$$

INZ033-034-041-042-049-050-058-059-042300-
EAST CENTRAL INDIANA

CITY           SKY/WX    TMP DP  RH WIND       PRES   REMARKS
MUNCIE         PTSUNNY   72  58  61 W8        30.17R

$$

INZ060-061-067>069-081>083-085>088-042300-
SOUTHWEST INDIANA

CITY           SKY/WX    TMP DP  RH WIND       PRES   REMARKS
EVANSVILLE     PTSUNNY   81  57  43 SW10      30.14S
HUNTINGBURG *+ PTSUNNY   81  57  44 SW16      30.14F

$$

INZ062-063-066-070>080-084-089>092-042300-
SOUTH CENTRAL AND SOUTHEAST INDIANA

CITY           SKY/WX    TMP DP  RH WIND       PRES   REMARKS
BLOOMINGTON    PTSUNNY   80  56  43 S12       30.13F
MADISON *+     CLOUDY    77  54  44 SW3       30.18S
SEYMOUR +      CLOUDY    79  61  53 W5        30.14F

$$




USA.gov is the U.S. government's official web portal to all federal, state and local government web resources and services.